Saint Bonnet de Bellac- Haute Vienne - France
Donnes mto: mercredi, 11/01/2012
Date Horaire Temp. E. Hum. E. P.atmo. Pluie Vent Direction Direction Ensoleilleme Solaire P. de rose Temp au vent Rafales
11/01/2012 00:00 5,7 C 94 % 1030,3 hPa 0,0 mm 8,3 km/h (2 Bft) NE 45 0 min 0 W/m 4,8 C 3,9 C 12,2 km/h (2 Bft)
11/01/2012 00:10 5,7 C 94 % 1030,3 hPa 0,1 mm 9,0 km/h (2 Bft) NE 45 0 min 0 W/m 4,8 C 3,7 C 13,7 km/h (3 Bft)
11/01/2012 00:20 5,7 C 94 % 1030,2 hPa 0,0 mm 9,4 km/h (2 Bft) NE 45 0 min 0 W/m 4,8 C 3,6 C 12,6 km/h (3 Bft)
11/01/2012 00:30 5,7 C 94 % 1030,3 hPa 0,0 mm 7,6 km/h (2 Bft) NE 45 0 min 0 W/m 4,8 C 4,1 C 8,6 km/h (2 Bft)
11/01/2012 00:40 5,6 C 94 % 1030,4 hPa 0,0 mm 4,3 km/h (1 Bft) NE 45 0 min 0 W/m 4,7 C 5,6 C 6,8 km/h (2 Bft)
11/01/2012 00:50 5,6 C 94 % 1030,5 hPa 0,0 mm 8,6 km/h (2 Bft) NE 45 0 min 0 W/m 4,7 C 3,7 C 12,6 km/h (3 Bft)
11/01/2012 01:00 5,5 C 94 % 1030,4 hPa 0,0 mm 10,1 km/h (2 Bft) N-NE 22 0 min 0 W/m 4,6 C 3,2 C 11,5 km/h (2 Bft)
11/01/2012 01:10 5,4 C 94 % 1030,5 hPa 0,0 mm 7,6 km/h (2 Bft) NE 45 0 min 0 W/m 4,5 C 3,7 C 11,9 km/h (2 Bft)
11/01/2012 01:20 5,3 C 94 % 1030,4 hPa 0,0 mm 5,0 km/h (1 Bft) N-NE 22 0 min 0 W/m 4,4 C 4,4 C 8,3 km/h (2 Bft)
11/01/2012 01:30 5,2 C 94 % 1030,4 hPa 0,0 mm 9,0 km/h (2 Bft) N-NE 22 0 min 0 W/m 4,3 C 3,1 C 11,2 km/h (2 Bft)
11/01/2012 01:40 5,1 C 94 % 1030,5 hPa 0,0 mm 7,6 km/h (2 Bft) E-NE 67 0 min 0 W/m 4,2 C 3,4 C 8,3 km/h (2 Bft)
11/01/2012 01:50 5,0 C 94 % 1030,4 hPa 0,0 mm 6,8 km/h (2 Bft) NE 45 0 min 0 W/m 4,1 C 3,5 C 13,0 km/h (3 Bft)
11/01/2012 02:02 4,9 C 94 % 1030,4 hPa 0,0 mm 7,9 km/h (2 Bft) N-NE 22 0 min 0 W/m 4,0 C 3,0 C 10,4 km/h (2 Bft)
11/01/2012 02:10 4,9 C 94 % 1030,4 hPa 0,0 mm 5,8 km/h (2 Bft) NE 45 0 min 0 W/m 4,0 C 3,7 C 11,2 km/h (2 Bft)
11/01/2012 02:20 4,8 C 94 % 1030,5 hPa 0,0 mm 8,6 km/h (2 Bft) N-NE 22 0 min 0 W/m 3,9 C 2,7 C 12,2 km/h (2 Bft)
11/01/2012 02:30 4,8 C 94 % 1030,6 hPa 0,0 mm 4,3 km/h (1 Bft) NE 45 0 min 0 W/m 3,9 C 4,8 C 7,9 km/h (2 Bft)
11/01/2012 02:40 4,8 C 94 % 1030,5 hPa 0,0 mm 7,6 km/h (2 Bft) N-NE 22 0 min 0 W/m 3,9 C 3,0 C 12,6 km/h (3 Bft)
11/01/2012 02:50 4,8 C 94 % 1030,6 hPa 0,0 mm 9,7 km/h (2 Bft) N-NE 22 0 min 0 W/m 3,9 C 2,5 C 13,3 km/h (3 Bft)
11/01/2012 03:00 4,7 C 94 % 1030,7 hPa 0,0 mm 7,2 km/h (2 Bft) N 360 0 min 0 W/m 3,8 C 3,0 C 13,7 km/h (3 Bft)
11/01/2012 03:10 4,6 C 94 % 1030,7 hPa 0,0 mm 7,9 km/h (2 Bft) NE 45 0 min 0 W/m 3,7 C 2,7 C 14,4 km/h (3 Bft)
11/01/2012 03:20 4,5 C 94 % 1030,7 hPa 0,0 mm 6,1 km/h (2 Bft) N-NE 22 0 min 0 W/m 3,6 C 3,1 C 6,8 km/h (2 Bft)
11/01/2012 03:30 4,4 C 94 % 1030,7 hPa 0,0 mm 3,2 km/h (1 Bft) NE 45 0 min 0 W/m 3,5 C 4,4 C 6,1 km/h (2 Bft)
11/01/2012 03:40 4,4 C 94 % 1030,7 hPa 0,0 mm 4,0 km/h (1 Bft) NE 45 0 min 0 W/m 3,5 C 4,4 C 5,8 km/h (2 Bft)
11/01/2012 03:50 4,4 C 94 % 1030,7 hPa 0,0 mm 7,2 km/h (2 Bft) NE 45 0 min 0 W/m 3,5 C 2,7 C 9,0 km/h (2 Bft)
11/01/2012 04:00 4,4 C 94 % 1030,7 hPa 0,0 mm 1,1 km/h (1 Bft) N-NE 22 0 min 0 W/m 3,5 C 4,4 C 3,6 km/h (1 Bft)
11/01/2012 04:10 4,3 C 94 % 1030,6 hPa 0,0 mm 2,9 km/h (1 Bft) N-NE 22 0 min 0 W/m 3,4 C 4,3 C 6,8 km/h (2 Bft)
11/01/2012 04:20 4,2 C 94 % 1030,6 hPa 0,0 mm 1,1 km/h (1 Bft) N-NE 22 0 min 0 W/m 3,3 C 4,2 C 4,3 km/h (1 Bft)
11/01/2012 04:30 4,1 C 94 % 1030,5 hPa 0,0 mm 6,8 km/h (2 Bft) N 360 0 min 0 W/m 3,2 C 2,4 C 10,4 km/h (2 Bft)
11/01/2012 04:40 4,0 C 94 % 1030,5 hPa 0,0 mm 7,6 km/h (2 Bft) NE 45 0 min 0 W/m 3,1 C 2,1 C 12,2 km/h (2 Bft)
11/01/2012 04:50 3,9 C 94 % 1030,5 hPa 0,0 mm 6,5 km/h (2 Bft) N-NE 22 0 min 0 W/m 3,0 C 2,3 C 10,1 km/h (2 Bft)
11/01/2012 05:00 3,9 C 94 % 1030,5 hPa 0,0 mm 8,3 km/h (2 Bft) NE 45 0 min 0 W/m 3,0 C 1,8 C 8,3 km/h (2 Bft)
11/01/2012 05:10 3,8 C 94 % 1030,5 hPa 0,0 mm 5,0 km/h (1 Bft) N-NE 22 0 min 0 W/m 2,9 C 2,7 C 6,1 km/h (2 Bft)
11/01/2012 05:20 3,7 C 94 % 1030,5 hPa 0,0 mm 5,8 km/h (2 Bft) NE 45 0 min 0 W/m 2,8 C 2,3 C 5,8 km/h (2 Bft)
11/01/2012 05:30 3,5 C 94 % 1030,5 hPa 0,0 mm 6,8 km/h (2 Bft) NE 45 0 min 0 W/m 2,6 C 1,7 C 7,9 km/h (2 Bft)
11/01/2012 05:40 3,5 C 94 % 1030,5 hPa 0,0 mm 4,3 km/h (1 Bft) N-NE 22 0 min 0 W/m 2,6 C 3,5 C 6,8 km/h (2 Bft)
11/01/2012 05:50 3,4 C 94 % 1030,4 hPa 0,0 mm 4,3 km/h (1 Bft) N-NE 22 0 min 0 W/m 2,5 C 3,4 C 9,0 km/h (2 Bft)
11/01/2012 06:00 3,3 C 94 % 1030,3 hPa 0,0 mm 4,0 km/h (1 Bft) N-NE 22 0 min 0 W/m 2,4 C 3,3 C 6,1 km/h (2 Bft)
11/01/2012 06:10 3,2 C 94 % 1030,2 hPa 0,0 mm 4,3 km/h (1 Bft) NE 45 0 min 0 W/m 2,3 C 3,2 C 4,3 km/h (1 Bft)
11/01/2012 06:20 3,2 C 94 % 1030,3 hPa 0,0 mm 1,8 km/h (1 Bft) N-NE 22 0 min 0 W/m 2,3 C 3,2 C 3,6 km/h (1 Bft)
11/01/2012 06:30 3,1 C 94 % 1030,3 hPa 0,0 mm 2,2 km/h (1 Bft) NE 45 0 min 0 W/m 2,2 C 3,1 C 6,5 km/h (2 Bft)
11/01/2012 06:40 3,1 C 94 % 1030,4 hPa 0,0 mm 2,5 km/h (1 Bft) NE 45 0 min 0 W/m 2,2 C 3,1 C 6,1 km/h (2 Bft)
11/01/2012 06:50 3,1 C 94 % 1030,3 hPa 0,0 mm 5,4 km/h (2 Bft) E-NE 67 0 min 0 W/m 2,2 C 1,8 C 9,0 km/h (2 Bft)
11/01/2012 07:00 3,2 C 94 % 1030,2 hPa 0,0 mm 4,0 km/h (1 Bft) NE 45 0 min 0 W/m 2,3 C 3,2 C 4,3 km/h (1 Bft)
11/01/2012 07:10 3,3 C 94 % 1030,3 hPa 0,0 mm 4,3 km/h (1 Bft) NE 45 0 min 0 W/m 2,4 C 3,3 C 4,3 km/h (1 Bft)
11/01/2012 07:20 3,4 C 94 % 1030,2 hPa 0,0 mm 1,8 km/h (1 Bft) E-NE 67 0 min 0 W/m 2,5 C 3,4 C 1,8 km/h (1 Bft)
11/01/2012 07:30 3,4 C 94 % 1030,2 hPa 0,0 mm 2,9 km/h (1 Bft) NE 45 0 min 0 W/m 2,5 C 3,4 C 6,1 km/h (2 Bft)
11/01/2012 07:40 3,4 C 94 % 1030,3 hPa 0,0 mm 3,2 km/h (1 Bft) NE 45 0 min 0 W/m 2,5 C 3,4 C 7,2 km/h (2 Bft)
11/01/2012 07:50 3,4 C 94 % 1030,4 hPa 0,0 mm 4,3 km/h (1 Bft) NE 45 0 min 0 W/m 2,5 C 3,4 C 4,7 km/h (1 Bft)
11/01/2012 08:00 3,3 C 94 % 1030,4 hPa 0,0 mm 2,5 km/h (1 Bft) E-NE 67 0 min 0 W/m 2,4 C 3,3 C 3,6 km/h (1 Bft)
11/01/2012 08:10 3,3 C 94 % 1030,4 hPa 0,0 mm 1,8 km/h (1 Bft) NE 45 0 min 0 W/m 2,4 C 3,3 C 4,3 km/h (1 Bft)
11/01/2012 08:20 3,2 C 94 % 1030,6 hPa 0,0 mm 1,4 km/h (1 Bft) NE 45 0 min 0 W/m 2,3 C 3,2 C 4,3 km/h (1 Bft)
11/01/2012 08:30 3,1 C 94 % 1030,6 hPa 0,0 mm 0,0 km/h (0 Bft) E-NE 67 0 min 0 W/m 2,2 C 3,1 C 0,0 km/h (0 Bft)
11/01/2012 08:40 3,1 C 94 % 1030,7 hPa 0,1 mm 2,5 km/h (1 Bft) E-NE 67 0 min 0 W/m 2,2 C 3,1 C 4,0 km/h (1 Bft)
11/01/2012 08:50 3,1 C 94 % 1030,8 hPa 0,0 mm 3,2 km/h (1 Bft) NE 45 2 min 0 W/m 2,2 C 3,1 C 4,3 km/h (1 Bft)
11/01/2012 09:00 3,1 C 94 % 1031,0 hPa 0,0 mm 2,2 km/h (1 Bft) E-NE 67 2 min 0 W/m 2,2 C 3,1 C 4,0 km/h (1 Bft)
11/01/2012 09:10 3,1 C 94 % 1031,1 hPa 0,0 mm 7,6 km/h (2 Bft) NE 45 2 min 0 W/m 2,2 C 1,0 C 10,8 km/h (2 Bft)
11/01/2012 09:20 3,2 C 94 % 1031,2 hPa 0,0 mm 5,0 km/h (1 Bft) N 360 2 min 0 W/m 2,3 C 2,0 C 9,4 km/h (2 Bft)
11/01/2012 09:30 3,3 C 94 % 1031,4 hPa 0,0 mm 2,5 km/h (1 Bft) N-NE 22 2 min 0 W/m 2,4 C 3,3 C 4,3 km/h (1 Bft)
11/01/2012 09:40 3,4 C 94 % 1031,5 hPa 0,0 mm 3,6 km/h (1 Bft) NE 45 2 min 0 W/m 2,5 C 3,4 C 6,1 km/h (2 Bft)
11/01/2012 09:50 3,9 C 96 % 1031,5 hPa 0,0 mm 1,1 km/h (1 Bft) NE 45 2 min 0 W/m 3,3 C 3,9 C 1,8 km/h (1 Bft)
11/01/2012 10:00 4,4 C 96 % 1031,7 hPa 0,0 mm 1,8 km/h (1 Bft) NE 45 2 min 0 W/m 3,8 C 4,4 C 4,3 km/h (1 Bft)
11/01/2012 10:10 4,8 C 96 % 1031,8 hPa 0,0 mm 2,9 km/h (1 Bft) NE 45 2 min 0 W/m 4,2 C 4,8 C 6,1 km/h (2 Bft)
11/01/2012 10:20 5,4 C 95 % 1031,9 hPa 0,0 mm 3,2 km/h (1 Bft) NE 45 2 min 0 W/m 4,7 C 5,4 C 4,0 km/h (1 Bft)
11/01/2012 10:30 5,9 C 95 % 1032,1 hPa 0,0 mm 1,1 km/h (1 Bft) NE 45 2 min 0 W/m 5,2 C 5,9 C 4,0 km/h (1 Bft)
11/01/2012 10:40 6,4 C 94 % 1032,2 hPa 0,0 mm 3,2 km/h (1 Bft) E-NE 67 2 min 0 W/m 5,5 C 6,4 C 6,1 km/h (2 Bft)
11/01/2012 10:50 6,9 C 93 % 1032,4 hPa 0,0 mm 2,5 km/h (1 Bft) E-NE 67 2 min 0 W/m 5,8 C 6,9 C 6,5 km/h (2 Bft)
11/01/2012 11:00 7,4 C 92 % 1032,3 hPa 0,0 mm 6,5 km/h (2 Bft) E-SE 112 2 min 0 W/m 6,2 C 6,3 C 8,6 km/h (2 Bft)
11/01/2012 11:10 7,8 C 91 % 1032,4 hPa 0,0 mm 4,0 km/h (1 Bft) NE 45 2 min 0 W/m 6,4 C 7,8 C 7,6 km/h (2 Bft)
11/01/2012 11:20 8,0 C 89 % 1032,4 hPa 0,0 mm 5,0 km/h (1 Bft) NE 45 2 min 0 W/m 6,3 C 7,5 C 8,3 km/h (2 Bft)
11/01/2012 11:30 8,3 C 89 % 1032,5 hPa 0,0 mm 1,4 km/h (1 Bft) E-NE 67 2 min 0 W/m 6,6 C 8,3 C 4,3 km/h (1 Bft)
11/01/2012 11:40 8,9 C 88 % 1032,4 hPa 0,0 mm 5,0 km/h (1 Bft) NE 45 2 min 0 W/m 7,0 C 8,5 C 7,9 km/h (2 Bft)
11/01/2012 11:50 9,1 C 86 % 1032,3 hPa 0,0 mm 4,7 km/h (1 Bft) N-NE 22 2 min 0 W/m 6,9 C 8,8 C 7,6 km/h (2 Bft)
11/01/2012 12:00 9,4 C 85 % 1032,2 hPa 0,0 mm 4,3 km/h (1 Bft) NE 45 2 min 0 W/m 7,0 C 9,4 C 11,2 km/h (2 Bft)
11/01/2012 12:10 9,8 C 84 % 1032,5 hPa 0,0 mm 2,5 km/h (1 Bft) N-NE 22 2 min 0 W/m 7,2 C 9,8 C 7,6 km/h (2 Bft)
11/01/2012 12:20 10,1 C 82 % 1032,3 hPa 0,0 mm 5,4 km/h (2 Bft) NE 45 2 min 0 W/m 7,2 C 10,1 C 7,2 km/h (2 Bft)
11/01/2012 12:30 10,3 C 80 % 1032,1 hPa 0,0 mm 2,5 km/h (1 Bft) E-NE 67 2 min 0 W/m 7,0 C 10,3 C 4,3 km/h (1 Bft)
11/01/2012 12:40 10,5 C 78 % 1032,2 hPa 0,0 mm 5,0 km/h (1 Bft) NE 45 2 min 0 W/m 6,8 C 10,5 C 8,3 km/h (2 Bft)
11/01/2012 12:50 10,7 C 78 % 1032,3 hPa 0,0 mm 4,3 km/h (1 Bft) E-NE 67 2 min 0 W/m 7,0 C 10,7 C 6,8 km/h (2 Bft)
11/01/2012 13:00 11,1 C 77 % 1032,1 hPa 0,0 mm 3,2 km/h (1 Bft) N-NE 22 2 min 0 W/m 7,2 C 11,1 C 4,3 km/h (1 Bft)
11/01/2012 13:10 11,2 C 76 % 1031,9 hPa 0,0 mm 5,4 km/h (2 Bft) E-NE 67 2 min 0 W/m 7,1 C 11,2 C 5,4 km/h (2 Bft)
11/01/2012 13:20 11,1 C 76 % 1031,9 hPa 0,0 mm 5,0 km/h (1 Bft) NE 45 2 min 0 W/m 7,0 C 11,1 C 7,2 km/h (2 Bft)
11/01/2012 13:30 11,2 C 75 % 1031,7 hPa 0,0 mm 4,7 km/h (1 Bft) N-NE 22 2 min 0 W/m 6,9 C 11,2 C 8,3 km/h (2 Bft)
11/01/2012 13:40 11,1 C 74 % 1031,5 hPa 0,0 mm 5,4 km/h (2 Bft) N-NE 22 2 min 0 W/m 6,6 C 11,1 C 9,0 km/h (2 Bft)
11/01/2012 13:50 11,0 C 74 % 1031,4 hPa 0,0 mm 7,6 km/h (2 Bft) NE 45 2 min 0 W/m 6,5 C 11,0 C 13,0 km/h (3 Bft)
11/01/2012 14:00 11,1 C 74 % 1031,6 hPa 0,0 mm 7,6 km/h (2 Bft) N-NE 22 2 min 0 W/m 6,6 C 11,1 C 11,9 km/h (2 Bft)
11/01/2012 14:10 11,2 C 74 % 1031,6 hPa 0,0 mm 5,4 km/h (2 Bft) E-NE 67 2 min 0 W/m 6,7 C 11,2 C 8,6 km/h (2 Bft)
11/01/2012 14:20 11,2 C 73 % 1031,6 hPa 0,0 mm 8,3 km/h (2 Bft) NE 45 2 min 0 W/m 6,5 C 11,2 C 13,0 km/h (3 Bft)
11/01/2012 14:30 11,2 C 72 % 1031,3 hPa 0,0 mm 5,4 km/h (2 Bft) E-NE 67 2 min 0 W/m 6,3 C 11,2 C 7,2 km/h (2 Bft)
11/01/2012 14:40 11,2 C 74 % 1031,0 hPa 0,0 mm 4,3 km/h (1 Bft) E-NE 67 2 min 0 W/m 6,7 C 11,2 C 8,3 km/h (2 Bft)
11/01/2012 14:50 11,2 C 73 % 1030,9 hPa 0,0 mm 4,3 km/h (1 Bft) N 360 2 min 0 W/m 6,5 C 11,2 C 4,3 km/h (1 Bft)
11/01/2012 15:00 11,1 C 73 % 1030,7 hPa 0,0 mm 4,3 km/h (1 Bft) E-NE 67 2 min 0 W/m 6,4 C 11,1 C 7,2 km/h (2 Bft)
11/01/2012 15:10 10,9 C 74 % 1030,7 hPa 0,0 mm 1,1 km/h (1 Bft) NE 45 2 min 0 W/m 6,5 C 10,9 C 4,0 km/h (1 Bft)
11/01/2012 15:20 10,8 C 73 % 1030,6 hPa 0,0 mm 2,5 km/h (1 Bft) N-NE 22 2 min 0 W/m 6,2 C 10,8 C 5,8 km/h (2 Bft)
11/01/2012 15:30 10,6 C 73 % 1030,5 hPa 0,0 mm 2,9 km/h (1 Bft) E-NE 67 2 min 0 W/m 6,0 C 10,6 C 3,2 km/h (1 Bft)
11/01/2012 15:40 10,3 C 74 % 1030,6 hPa 0,0 mm 2,9 km/h (1 Bft) E-NE 67 2 min 0 W/m 5,9 C 10,3 C 4,0 km/h (1 Bft)
11/01/2012 15:50 10,2 C 74 % 1030,5 hPa 0,0 mm 3,2 km/h (1 Bft) N-NE 22 2 min 0 W/m 5,8 C 10,2 C 4,3 km/h (1 Bft)
11/01/2012 16:00 10,0 C 75 % 1030,5 hPa 0,0 mm 1,8 km/h (1 Bft) E-NE 67 2 min 0 W/m 5,8 C 10,0 C 4,0 km/h (1 Bft)
11/01/2012 16:10 9,9 C 75 % 1030,4 hPa 0,0 mm 3,2 km/h (1 Bft) E-NE 67 2 min 0 W/m 5,7 C 9,9 C 4,0 km/h (1 Bft)
11/01/2012 16:20 9,7 C 75 % 1030,4 hPa 0,0 mm 1,8 km/h (1 Bft) NE 45 2 min 0 W/m 5,5 C 9,7 C 3,6 km/h (1 Bft)
11/01/2012 16:30 9,4 C 75 % 1030,5 hPa 0,0 mm 0,4 km/h (0 Bft) E-NE 67 2 min 0 W/m 5,2 C 9,4 C 0,4 km/h (0 Bft)
11/01/2012 16:40 9,2 C 76 % 1030,5 hPa 0,0 mm 1,4 km/h (1 Bft) N-NE 22 2 min 0 W/m 5,2 C 9,2 C 4,3 km/h (1 Bft)
11/01/2012 16:50 8,8 C 76 % 1030,5 hPa 0,0 mm 1,4 km/h (1 Bft) NE 45 2 min 0 W/m 4,8 C 8,8 C 1,4 km/h (1 Bft)
11/01/2012 17:00 8,5 C 77 % 1030,4 hPa 0,0 mm 0,4 km/h (0 Bft) NE 45 2 min 0 W/m 4,7 C 8,5 C 3,2 km/h (1 Bft)
11/01/2012 17:10 8,2 C 77 % 1030,5 hPa 0,0 mm 2,5 km/h (1 Bft) N-NE 22 2 min 0 W/m 4,4 C 8,2 C 4,3 km/h (1 Bft)
11/01/2012 17:20 7,8 C 78 % 1030,4 hPa 0,0 mm 1,8 km/h (1 Bft) NE 45 0 min 0 W/m 4,2 C 7,8 C 4,3 km/h (1 Bft)
11/01/2012 17:30 7,4 C 80 % 1030,5 hPa 0,0 mm 0,0 km/h (0 Bft) NE 45 0 min 0 W/m 4,2 C 7,4 C 0,0 km/h (0 Bft)
11/01/2012 17:40 6,9 C 79 % 1030,5 hPa 0,0 mm 0,4 km/h (0 Bft) E-NE 67 0 min 0 W/m 3,5 C 6,9 C 0,4 km/h (0 Bft)
11/01/2012 17:50 6,6 C 81 % 1030,5 hPa 0,0 mm 0,7 km/h (0 Bft) N-NE 22 0 min 0 W/m 3,6 C 6,6 C 3,2 km/h (1 Bft)
11/01/2012 18:00 6,3 C 82 % 1030,6 hPa 0,0 mm 0,0 km/h (0 Bft) N-NE 22 0 min 0 W/m 3,5 C 6,3 C 0,0 km/h (0 Bft)
11/01/2012 18:10 5,9 C 82 % 1030,6 hPa 0,0 mm 0,4 km/h (0 Bft) E-NE 67 0 min 0 W/m 3,1 C 5,9 C 2,9 km/h (1 Bft)
11/01/2012 18:20 5,7 C 83 % 1030,6 hPa 0,0 mm 0,0 km/h (0 Bft) NE 45 0 min 0 W/m 3,0 C 5,7 C 0,0 km/h (0 Bft)
11/01/2012 18:30 5,4 C 83 % 1030,6 hPa 0,0 mm 1,8 km/h (1 Bft) NE 45 0 min 0 W/m 2,7 C 5,4 C 1,8 km/h (1 Bft)
11/01/2012 18:40 5,2 C 84 % 1030,7 hPa 0,0 mm 0,0 km/h (0 Bft) E-NE 67 0 min 0 W/m 2,7 C 5,2 C 0,0 km/h (0 Bft)
11/01/2012 18:50 4,9 C 85 % 1030,7 hPa 0,0 mm 0,0 km/h (0 Bft) NE 45 0 min 0 W/m 2,6 C 4,9 C 0,0 km/h (0 Bft)
11/01/2012 19:00 4,8 C 85 % 1030,7 hPa 0,0 mm 1,1 km/h (1 Bft) NE 45 0 min 0 W/m 2,5 C 4,8 C 1,1 km/h (1 Bft)
11/01/2012 19:10 4,8 C 86 % 1030,8 hPa 0,0 mm 1,1 km/h (1 Bft) NE 45 0 min 0 W/m 2,7 C 4,8 C 2,9 km/h (1 Bft)
11/01/2012 19:20 4,6 C 86 % 1030,8 hPa 0,0 mm 3,2 km/h (1 Bft) N-NE 22 0 min 0 W/m 2,5 C 4,6 C 7,2 km/h (2 Bft)
11/01/2012 19:30 4,4 C 86 % 1030,8 hPa 0,0 mm 3,2 km/h (1 Bft) NE 45 0 min 0 W/m 2,3 C 4,4 C 7,2 km/h (2 Bft)
11/01/2012 19:40 4,2 C 86 % 1030,8 hPa 0,0 mm 1,8 km/h (1 Bft) NE 45 0 min 0 W/m 2,1 C 4,2 C 4,0 km/h (1 Bft)
11/01/2012 19:50 3,9 C 87 % 1030,8 hPa 0,0 mm 1,4 km/h (1 Bft) N-NE 22 0 min 0 W/m 1,9 C 3,9 C 4,0 km/h (1 Bft)
11/01/2012 20:00 3,8 C 87 % 1030,8 hPa 0,0 mm 0,4 km/h (0 Bft) N-NE 22 0 min 0 W/m 1,8 C 3,8 C 3,2 km/h (1 Bft)
11/01/2012 20:10 3,5 C 87 % 1030,8 hPa 0,0 mm 0,0 km/h (0 Bft) NE 45 0 min 0 W/m 1,5 C 3,5 C 2,9 km/h (1 Bft)
11/01/2012 20:20 3,3 C 88 % 1030,7 hPa 0,0 mm 0,0 km/h (0 Bft) NE 45 0 min 0 W/m 1,5 C 3,3 C 3,2 km/h (1 Bft)
11/01/2012 20:30 3,1 C 87 % 1030,6 hPa 0,0 mm 1,4 km/h (1 Bft) NE 45 0 min 0 W/m 1,2 C 3,1 C 4,0 km/h (1 Bft)
11/01/2012 20:40 2,9 C 88 % 1030,6 hPa 0,0 mm 1,1 km/h (1 Bft) NE 45 0 min 0 W/m 1,1 C 2,9 C 3,2 km/h (1 Bft)
11/01/2012 20:50 2,8 C 88 % 1030,5 hPa 0,0 mm 0,0 km/h (0 Bft) N-NE 22 0 min 0 W/m 1,0 C 2,8 C 0,0 km/h (0 Bft)
11/01/2012 21:00 2,6 C 88 % 1030,5 hPa 0,0 mm 2,2 km/h (1 Bft) NE 45 0 min 0 W/m 0,8 C 2,6 C 2,2 km/h (1 Bft)
11/01/2012 21:10 2,4 C 88 % 1030,5 hPa 0,0 mm 0,4 km/h (0 Bft) N-NE 22 0 min 0 W/m 0,6 C 2,4 C 0,4 km/h (0 Bft)
11/01/2012 21:20 2,3 C 89 % 1030,4 hPa 0,0 mm 0,0 km/h (0 Bft) E-NE 67 0 min 0 W/m 0,7 C 2,3 C 0,0 km/h (0 Bft)
11/01/2012 21:30 2,1 C 89 % 1030,4 hPa 0,0 mm 1,1 km/h (1 Bft) NE 45 0 min 0 W/m 0,5 C 2,1 C 4,0 km/h (1 Bft)
11/01/2012 21:40 1,9 C 89 % 1030,4 hPa 0,0 mm 0,0 km/h (0 Bft) NE 45 0 min 0 W/m 0,3 C 1,9 C 0,0 km/h (0 Bft)
11/01/2012 21:50 1,7 C 89 % 1030,4 hPa 0,0 mm 0,0 km/h (0 Bft) NE 45 0 min 0 W/m 0,1 C 1,7 C 0,0 km/h (0 Bft)
11/01/2012 22:00 1,4 C 89 % 1030,5 hPa 0,0 mm 0,0 km/h (0 Bft) NE 45 0 min 0 W/m -0,2 C 1,4 C 0,0 km/h (0 Bft)
11/01/2012 22:10 1,2 C 89 % 1030,4 hPa 0,0 mm 0,0 km/h (0 Bft) NE 45 0 min 0 W/m -0,4 C 1,2 C 0,0 km/h (0 Bft)
11/01/2012 22:20 0,9 C 89 % 1030,3 hPa 0,0 mm 0,0 km/h (0 Bft) NE 45 0 min 0 W/m -0,7 C 0,9 C 0,0 km/h (0 Bft)
11/01/2012 22:30 0,8 C 90 % 1030,2 hPa 0,0 mm 0,0 km/h (0 Bft) NE 45 0 min 0 W/m -0,6 C 0,8 C 0,0 km/h (0 Bft)
11/01/2012 22:40 0,6 C 90 % 1030,3 hPa 0,0 mm 0,0 km/h (0 Bft) NE 45 0 min 0 W/m -0,8 C 0,6 C 0,0 km/h (0 Bft)
11/01/2012 22:50 0,4 C 90 % 1030,2 hPa 0,0 mm 0,0 km/h (0 Bft) NE 45 0 min 0 W/m -1,0 C 0,4 C 0,0 km/h (0 Bft)
11/01/2012 23:00 0,3 C 90 % 1030,3 hPa 0,0 mm 0,0 km/h (0 Bft) NE 45 0 min 0 W/m -1,1 C 0,3 C 0,0 km/h (0 Bft)
11/01/2012 23:10 0,3 C 90 % 1030,3 hPa 0,0 mm 0,0 km/h (0 Bft) N-NE 22 0 min 0 W/m -1,1 C 0,3 C 0,0 km/h (0 Bft)
11/01/2012 23:20 0,3 C 90 % 1030,4 hPa 0,0 mm 0,0 km/h (0 Bft) N-NE 22 0 min 0 W/m -1,1 C 0,3 C 0,0 km/h (0 Bft)
11/01/2012 23:30 0,3 C 90 % 1030,3 hPa 0,0 mm 0,0 km/h (0 Bft) N-NE 22 0 min 0 W/m -1,1 C 0,3 C 0,0 km/h (0 Bft)
11/01/2012 23:40 0,3 C 90 % 1030,4 hPa 0,0 mm 0,0 km/h (0 Bft) NE 45 0 min 0 W/m -1,1 C 0,3 C 2,9 km/h (1 Bft)
11/01/2012 23:50 0,3 C 90 % 1030,3 hPa 0,0 mm 0,0 km/h (0 Bft) NE 45 0 min 0 W/m -1,1 C 0,3 C 0,0 km/h (0 Bft)
_ Min-Heure 23:50 14:30 22:50 - 23:50 - - - - 23:50 23:50 23:50
Minimum _ 0,3 C 72 % 1030,2 hPa - 0,0 km/h (0 Bft) - - - - -1,1 C 0,3 C 0,0 km/h (0 Bft)
_ Max-Heure 14:50 10:10 12:10 08:40 01:00 - - 17:10 23:50 12:10 14:50 03:10
Maximum _ 11,2 C 96 % 1032,5 hPa 0,1 mm 10,1 km/h
N-NE (2 Bft)
- - 2 min 0 W/m 7,2 C 11,2 C 14,4 km/h
NE (3 Bft)
Moyenne _ 5,5 C 88 % 1030,8 hPa #0,2 mm 3,4 km/h (1 Bft) NE - #1:42 h 0 W/m 3,5 C 5,1 C 5,6 km/h (2 Bft)
Saint Bonnet de Bellac- Haute Vienne - France